This demonstration page uses our WeatherBlox Daily Observations layout. Learn more.

Left ArrowRight Arrow

53.62937, 11.41316

Hourly Observations for January 12, 2020

Temp ( °F °C ) Dew Point ( °F °C ) Humidity (%) Winds ( mph kmh ) Pressure ( in mb ) Visibility ( mi km ) Precip ( " mm )
6:50 am 06:50 Mostly Cloudy 43 6 37 3 81 81 SW 16 26 30.06 1018 30 48 N/A
7:20 am 07:20 Mostly Cloudy 43 6 37 3 81 81 SW 15 24 30.03 1017 30 48 N/A
7:50 am 07:50 Mostly Cloudy 43 6 37 3 81 81 SW 14 22 30.03 1017 30 48 N/A
8:20 am 08:20 Mostly Cloudy with Drizzle 43 6 37 3 81 81 SW 14 22 30.03 1017 30 48 N/A
8:50 am 08:50 Mostly Cloudy 41 5 37 3 87 87 SW 13 20 30.03 1017 30 48 N/A
9:20 am 09:20 Mostly Cloudy 43 6 36 2 76 76 SW 14 22 30.00 1016 30 48 N/A
9:50 am 09:50 Mostly Cloudy 43 6 36 2 76 76 SW 13 20 30.03 1017 30 48 N/A
10:20 am 10:20 Mostly Cloudy 43 6 36 2 76 76 SW 14 22 30.00 1016 30 48 N/A
10:50 am 10:50 Mostly Cloudy 43 6 36 2 76 76 SW 15 24 30.00 1016 30 48 N/A
11:20 am 11:20 Mostly Cloudy 43 6 36 2 76 76 SW 14 22 30.00 1016 30 48 N/A
11:50 am 11:50 Mostly Cloudy with Drizzle 43 6 37 3 81 81 SW 14 22 30.00 1016 30 48 N/A
12:20 pm 12:20 Mostly Cloudy 43 6 37 3 81 81 SW 15 24 29.97 1015 30 48 N/A
12:50 pm 12:50 Mostly Cloudy with Light Rain 41 5 37 3 87 87 SW 13 20 29.98 1015 4 7 N/A
1:20 pm 13:20 Mostly Cloudy with Light Rain 41 5 39 4 93 93 SW 13 20 29.98 1015 4 6 N/A
1:50 pm 13:50 Mostly Cloudy with Light Rain 41 5 39 4 93 93 SW 13 20 29.95 1014 3 5 N/A
2:20 pm 14:20 Mostly Cloudy with Light Rain 41 5 39 4 93 93 SW 13 20 29.95 1014 3 5 N/A
2:50 pm 14:50 Mostly Cloudy with Light Rain 41 5 39 4 93 93 SW 13 20 29.95 1014 3 5 N/A
3:20 pm 15:20 Mostly Cloudy with Light Rain 41 5 39 4 93 93 SW 12 19 29.95 1014 4 6 N/A
3:50 pm 15:50 Mostly Cloudy with Light Rain 41 5 39 4 93 93 SW 13 20 29.92 1013 4 6 N/A
4:20 pm 16:20 Mostly Cloudy with Light Rain 43 6 39 4 87 87 SW 14 22 29.92 1013 3 5 N/A
4:50 pm 16:50 Mostly Cloudy 43 6 41 5 93 93 SW 15 24 29.92 1013 30 48 N/A
5:20 pm 17:20 Mostly Cloudy 43 6 41 5 93 93 SW 15 24 29.92 1013 30 48 N/A
5:50 pm 17:50 Mostly Cloudy 43 6 41 5 93 93 SW 15 24 29.92 1013 30 48 N/A
6:20 pm 18:20 Mostly Cloudy 45 7 41 5 87 87 SW 17 28 29.92 1013 30 48 N/A
6:50 pm 18:50 Mostly Cloudy with Light Rain 45 7 41 5 87 87 SW 17 28 29.92 1013 30 48 N/A
7:20 pm 19:20 Mostly Cloudy with Light Rain 45 7 43 6 93 93 SW 16 26 29.92 1013 30 48 N/A
7:50 pm 19:50 Mostly Cloudy 45 7 43 6 93 93 SW 18 30 29.92 1013 30 48 N/A

Powered by AerisWeather